When you browse on this site, cookies collect data to enhance your experience and personalize the content and advertising you see.
Visit our Privacy Policy to learn more. By continuing to use the site, you agree to this use of cookies and data.
  • En España
  • Lista de países
  • Para 7 días
  • Temperatura del agua
  • El tiempo en el mapa
  • Informadores
  • user-avatar
    Iniciar sesión

    Tiempo cada hora Livingstone

    Hoy, 29 Febrero, Sábado

    Tiempo Temperatura Precipitaciones Viento Presión Humedad
    00:00 +22°C° 0 mm 1 mps 681 mmHg 80%
    01:00 +21°C° 0 mm 1 mps 681 mmHg 80%
    02:00 +21°C° 0 mm 1 mps 681 mmHg 81%
    03:00 +20°C° 0 mm 1 mps 681 mmHg 82%
    04:00 +19°C° 0 mm 2 mps 681 mmHg 84%
    05:00 +19°C° 0 mm 2 mps 681 mmHg 85%
    06:00 +20°C° 0 mm 3 mps 682 mmHg 81%
    07:00 +21°C° 0 mm 3 mps 683 mmHg 77%
    08:00 +22°C° 0 mm 4 mps 684 mmHg 73%
    09:00 +25°C° 0 mm 5 mps 684 mmHg 69%
    10:00 +26°C° 0 mm 5 mps 684 mmHg 64%
    11:00 +28°C° 0 mm 5 mps 685 mmHg 60%
    12:00 +28°C° 0 mm 5 mps 684 mmHg 59%
    13:00 +29°C° 0 mm 5 mps 684 mmHg 58%
    14:00 +30°C° 0 mm 4 mps 683 mmHg 57%
    15:00 +29°C° 0.3 mm 4 mps 682 mmHg 61%
    16:00 +29°C° 0.3 mm 4 mps 682 mmHg 66%
    17:00 +28°C° 0.3 mm 3 mps 681 mmHg 70%
    18:00 +26°C° 0.1 mm 3 mps 682 mmHg 75%
    19:00 +25°C° 0.1 mm 2 mps 682 mmHg 80%
    20:00 +23°C° 0.1 mm 1 mps 682 mmHg 85%
    21:00 +23°C° 0 mm 1 mps 683 mmHg 86%
    22:00 +22°C° 0 mm 1 mps 683 mmHg 88%
    23:00 +22°C° 0 mm 1 mps 683 mmHg 89%

    Mañana, 1 Marzo, Domingo

    Tiempo Temperatura Precipitaciones Viento Presión Humedad
    00:00 +20°C° 0 mm 2 mps 683 mmHg 87%
    01:00 +20°C° 0 mm 4 mps 683 mmHg 85%
    02:00 +20°C° 0 mm 5 mps 683 mmHg 83%
    03:00 +19°C° 0 mm 4 mps 683 mmHg 84%
    04:00 +19°C° 0 mm 3 mps 683 mmHg 85%
    05:00 +18°C° 0 mm 3 mps 683 mmHg 86%
    06:00 +19°C° 0 mm 3 mps 683 mmHg 84%
    07:00 +19°C° 0 mm 3 mps 684 mmHg 82%
    08:00 +20°C° 0 mm 3 mps 684 mmHg 80%
    09:00 +20°C° 0 mm 3 mps 684 mmHg 78%
    10:00 +21°C° 0 mm 3 mps 684 mmHg 77%
    11:00 +22°C° 0 mm 3 mps 684 mmHg 75%
    12:00 +24°C° 0 mm 2 mps 684 mmHg 71%
    13:00 +26°C° 0 mm 2 mps 684 mmHg 66%
    14:00 +28°C° 0 mm 2 mps 684 mmHg 61%
    15:00 +27°C° 0.6 mm 1 mps 683 mmHg 65%
    16:00 +27°C° 0.6 mm 1 mps 682 mmHg 69%
    17:00 +27°C° 0.6 mm 1 mps 682 mmHg 73%
    18:00 +25°C° 0.3 mm 1 mps 682 mmHg 78%
    19:00 +24°C° 0.3 mm 1 mps 682 mmHg 83%
    20:00 +20°C° 0.3 mm 0 mps 682 mmHg 88%
    21:00 +20°C° 0.1 mm 0 mps 682 mmHg 89%
    22:00 +20°C° 0.1 mm 0 mps 682 mmHg 90%
    23:00 +20°C° 0.1 mm 0 mps 683 mmHg 91%

    Pasado mañana, 2 Marzo, Lunes

    Tiempo Temperatura Precipitaciones Viento Presión Humedad
    00:00 +20°C° 0 mm 0 mps 683 mmHg 90%
    01:00 +22°C° 0 mm 1 mps 682 mmHg 90%
    02:00 +22°C° 0 mm 1 mps 682 mmHg 89%
    03:00 +21°C° 0 mm 1 mps 682 mmHg 90%
    04:00 +21°C° 0 mm 1 mps 682 mmHg 90%
    05:00 +21°C° 0 mm 1 mps 682 mmHg 91%
    06:00 +21°C° 0 mm 1 mps 682 mmHg 91%
    07:00 +20°C° 0 mm 2 mps 683 mmHg 91%
    08:00 +20°C° 0 mm 2 mps 683 mmHg 91%
    09:00 +21°C° 0 mm 2 mps 684 mmHg 86%
    10:00 +24°C° 0 mm 1 mps 684 mmHg 81%
    11:00 +25°C° 0 mm 1 mps 684 mmHg 76%
    12:00 +26°C° 0.2 mm 1 mps 684 mmHg 72%
    13:00 +27°C° 0.2 mm 1 mps 683 mmHg 69%
    14:00 +28°C° 0.2 mm 1 mps 683 mmHg 65%
    15:00 +27°C° 0.3 mm 1 mps 682 mmHg 69%
    16:00 +26°C° 0.3 mm 1 mps 682 mmHg 74%
    17:00 +26°C° 0.3 mm 1 mps 681 mmHg 78%
    18:00 +24°C° 0 mm 1 mps 681 mmHg 82%
    19:00 +23°C° 0 mm 1 mps 682 mmHg 85%
    20:00 +22°C° 0 mm 1 mps 682 mmHg 88%
    21:00 +21°C° 0 mm 1 mps 682 mmHg 89%
    22:00 +21°C° 0 mm 1 mps 682 mmHg 91%
    23:00 +21°C° 0 mm 1 mps 683 mmHg 92%

    3 Marzo, Martes

    Tiempo Temperatura Precipitaciones Viento Presión Humedad
    00:00 +20°C° 0 mm 1 mps 682 mmHg 92%
    01:00 +20°C° 0 mm 1 mps 682 mmHg 93%
    02:00 +20°C° 0 mm 1 mps 682 mmHg 93%
    03:00 +20°C° 0 mm 1 mps 682 mmHg 93%
    04:00 +20°C° 0 mm 1 mps 682 mmHg 93%
    05:00 +20°C° 0 mm 1 mps 682 mmHg 94%
    06:00 +21°C° 0 mm 1 mps 683 mmHg 90%
    07:00 +22°C° 0 mm 1 mps 683 mmHg 86%
    08:00 +23°C° 0 mm 1 mps 684 mmHg 83%
    09:00 +25°C° 0 mm 1 mps 684 mmHg 73%
    10:00 +27°C° 0 mm 2 mps 684 mmHg 64%
    11:00 +29°C° 0 mm 2 mps 685 mmHg 54%
    12:00 +30°C° 0.1 mm 2 mps 684 mmHg 52%
    13:00 +30°C° 0.1 mm 2 mps 684 mmHg 50%
    14:00 +31°C° 0.1 mm 1 mps 684 mmHg 48%
    15:00 +31°C° 0 mm 2 mps 683 mmHg 51%
    16:00 +30°C° 0 mm 2 mps 683 mmHg 54%
    17:00 +30°C° 0 mm 2 mps 682 mmHg 58%
    18:00 +27°C° 0.2 mm 2 mps 682 mmHg 66%
    19:00 +25°C° 0.2 mm 2 mps 683 mmHg 75%
    20:00 +23°C° 0.2 mm 2 mps 683 mmHg 83%
    21:00 +21°C° 0 mm 2 mps 683 mmHg 84%
    22:00 +21°C° 0 mm 2 mps 683 mmHg 85%
    23:00 +21°C° 0 mm 1 mps 684 mmHg 86%

    4 Marzo, Miércoles

    Tiempo Temperatura Precipitaciones Viento Presión Humedad
    00:00 +21°C° 0 mm 1 mps 684 mmHg 86%
    01:00 +20°C° 0 mm 1 mps 683 mmHg 86%
    02:00 +20°C° 0 mm 1 mps 683 mmHg 86%
    03:00 +20°C° 0.2 mm 1 mps 683 mmHg 90%
    04:00 +19°C° 0.2 mm 1 mps 683 mmHg 93%
    05:00 +18°C° 0.2 mm 2 mps 683 mmHg 96%
    06:00 +19°C° 0.2 mm 2 mps 684 mmHg 94%
    07:00 +20°C° 0.2 mm 2 mps 684 mmHg 92%
    08:00 +20°C° 0.2 mm 2 mps 685 mmHg 90%
    09:00 +22°C° 0.6 mm 3 mps 685 mmHg 84%
    10:00 +25°C° 0.6 mm 3 mps 685 mmHg 78%
    11:00 +27°C° 0.6 mm 3 mps 685 mmHg 72%
    12:00 +27°C° 0.8 mm 3 mps 685 mmHg 69%
    13:00 +28°C° 0.8 mm 3 mps 684 mmHg 67%
    14:00 +29°C° 0.8 mm 2 mps 684 mmHg 64%
    15:00 +28°C° 0.5 mm 3 mps 683 mmHg 67%
    16:00 +27°C° 0.5 mm 3 mps 683 mmHg 70%
    17:00 +27°C° 0.5 mm 3 mps 682 mmHg 73%
    18:00 +25°C° 0.2 mm 3 mps 683 mmHg 79%
    19:00 +23°C° 0.2 mm 2 mps 683 mmHg 85%
    20:00 +21°C° 0.2 mm 1 mps 683 mmHg 91%
    21:00 +21°C° 0 mm 1 mps 683 mmHg 91%
    22:00 +20°C° 0 mm 1 mps 684 mmHg 91%
    23:00 +20°C° 0 mm 1 mps 684 mmHg 91%

    5 Marzo, Jueves

    Tiempo Temperatura Precipitaciones Viento Presión Humedad
    00:00 +20°C° 0 mm 1 mps 684 mmHg 92%
    01:00 +20°C° 0 mm 1 mps 684 mmHg 93%
    02:00 +19°C° 0 mm 1 mps 683 mmHg 93%
    03:00 +19°C° 0 mm 1 mps 683 mmHg 94%
    04:00 +18°C° 0 mm 2 mps 683 mmHg 95%
    05:00 +17°C° 0 mm 2 mps 683 mmHg 96%
    06:00 +18°C° 0 mm 2 mps 684 mmHg 92%
    07:00 +19°C° 0 mm 2 mps 684 mmHg 89%
    08:00 +20°C° 0 mm 3 mps 685 mmHg 85%
    09:00 +22°C° 0 mm 3 mps 685 mmHg 77%
    10:00 +25°C° 0 mm 3 mps 685 mmHg 69%
    11:00 +27°C° 0 mm 2 mps 685 mmHg 62%
    12:00 +27°C° 0.4 mm 2 mps 685 mmHg 62%
    13:00 +28°C° 0.4 mm 2 mps 684 mmHg 62%
    14:00 +28°C° 0.4 mm 2 mps 684 mmHg 62%
    15:00 +27°C° 0.9 mm 2 mps 683 mmHg 66%
    16:00 +27°C° 0.9 mm 2 mps 682 mmHg 70%
    17:00 +26°C° 0.9 mm 3 mps 682 mmHg 75%
    18:00 +24°C° 0.1 mm 2 mps 682 mmHg 80%
    19:00 +23°C° 0.1 mm 2 mps 682 mmHg 85%
    20:00 +21°C° 0.1 mm 1 mps 682 mmHg 91%
    21:00 +21°C° 0 mm 1 mps 682 mmHg 91%
    22:00 +20°C° 0 mm 1 mps 683 mmHg 92%
    23:00 +20°C° 0 mm 1 mps 683 mmHg 92%
    Mostrar más